| time (UTC) | temp F | wind direction | speed MPH | gust MPH | rain 1hr in | rain 24hr in | rain mn in | humidity % | barometer mb |
| 20260510151601 | 53 | 59 | 5.0 | 15.0 | 0.00 | 0.00 | 0.00 | 66 | 1015.6 |
| 20260510151055 | 53 | 34 | 7.0 | 15.0 | 0.00 | 0.00 | 0.00 | 66 | 1015.5 |
| 20260510150555 | 53 | 91 | 6.0 | 14.0 | 0.00 | 0.00 | 0.00 | 66 | 1015.7 |
| 20260510145554 | 53 | 355 | 5.0 | 15.0 | 0.00 | 0.00 | 0.00 | 66 | 1015.8 |
| 20260510145057 | 53 | 26 | 7.0 | 15.0 | 0.00 | 0.00 | 0.00 | 67 | 1015.7 |
| 20260510144615 | 53 | 38 | 6.0 | 14.0 | 0.00 | 0.00 | 0.00 | 67 | 1015.8 |
| 20260510144055 | 53 | 31 | 6.0 | 16.0 | 0.00 | 0.00 | 0.00 | 68 | 1016.0 |
| 20260510143556 | 53 | 36 | 8.0 | 16.0 | 0.00 | 0.00 | 0.00 | 67 | 1016.0 |
| 20260510143100 | 53 | 30 | 6.0 | 15.0 | 0.00 | 0.00 | 0.00 | 68 | 1016.0 |
| 20260510142558 | 53 | 68 | 4.0 | 15.0 | 0.00 | 0.00 | 0.00 | 68 | 1016.1 |
| 20260510142056 | 53 | 55 | 6.0 | 15.0 | 0.00 | 0.00 | 0.00 | 68 | 1016.3 |
| 20260510141555 | 53 | 71 | 8.0 | 15.0 | 0.00 | 0.00 | 0.00 | 68 | 1016.2 |
| 20260510141056 | 53 | 36 | 6.0 | 16.0 | 0.00 | 0.00 | 0.00 | 68 | 1016.3 |
| 20260510140556 | 54 | 74 | 8.0 | 16.0 | 0.00 | 0.00 | 0.00 | 68 | 1016.3 |
| 20260510140056 | 54 | 34 | 9.0 | 16.0 | 0.00 | 0.00 | 0.00 | 68 | 1016.2 |
| 20260510135556 | 54 | 57 | 7.0 | 14.0 | 0.00 | 0.00 | 0.00 | 68 | 1016.2 |
| 20260510135056 | 54 | 52 | 6.0 | 14.0 | 0.00 | 0.00 | 0.00 | 68 | 1016.3 |
| 20260510134556 | 54 | 33 | 9.0 | 14.0 | 0.00 | 0.00 | 0.00 | 68 | 1016.3 |
| 20260510134056 | 54 | 30 | 5.0 | 16.0 | 0.00 | 0.00 | 0.00 | 68 | 1016.3 |
| 20260510133558 | 54 | 59 | 6.0 | 16.0 | 0.00 | 0.00 | 0.00 | 67 | 1016.3 |
| 20260510133055 | 54 | 90 | 9.0 | 16.0 | 0.00 | 0.00 | 0.00 | 67 | 1016.3 |
| 20260510132556 | 54 | 70 | 4.0 | 13.0 | 0.00 | 0.00 | 0.00 | 68 | 1016.3 |
| 20260510132057 | 54 | 51 | 4.0 | 17.0 | 0.00 | 0.00 | 0.00 | 69 | 1016.3 |
| 20260510131554 | 54 | 36 | 8.0 | 17.0 | 0.00 | 0.00 | 0.00 | 69 | 1016.3 |
| 20260510131056 | 54 | 42 | 4.0 | 14.0 | 0.00 | 0.00 | 0.00 | 69 | 1016.3 |
| 20260510130557 | 54 | 49 | 5.0 | 19.0 | 0.00 | 0.00 | 0.00 | 69 | 1016.3 |
| 20260510130056 | 54 | 36 | 9.0 | 19.0 | 0.00 | 0.00 | 0.00 | 69 | 1016.4 |
| 20260510125556 | 54 | 34 | 5.0 | 18.0 | 0.00 | 0.00 | 0.00 | 70 | 1016.4 |
| 20260510125057 | 54 | 47 | 8.0 | 19.0 | 0.00 | 0.00 | 0.00 | 69 | 1016.6 |
| 20260510124609 | 54 | 18 | 7.0 | 19.0 | 0.00 | 0.00 | 0.00 | 69 | 1016.5 |
| 20260510124056 | 55 | 51 | 7.0 | 15.0 | 0.00 | 0.00 | 0.00 | 68 | 1016.7 |
| 20260510123557 | 55 | 78 | 7.0 | 15.0 | 0.00 | 0.00 | 0.00 | 68 | 1016.6 |
| 20260510123058 | 55 | 37 | 7.0 | 16.0 | 0.00 | 0.00 | 0.00 | 68 | 1016.7 |
| 20260510122559 | 55 | 28 | 5.0 | 19.0 | 0.00 | 0.00 | 0.00 | 69 | 1016.8 |
| 20260510122056 | 55 | 18 | 8.0 | 19.0 | 0.00 | 0.00 | 0.00 | 68 | 1016.9 |
| 20260510121557 | 55 | 91 | 9.0 | 19.0 | 0.00 | 0.00 | 0.00 | 66 | 1016.7 |
| 20260510121059 | 56 | 66 | 10.0 | 18.0 | 0.00 | 0.00 | 0.00 | 65 | 1016.7 |
| 20260510120559 | 56 | 44 | 8.0 | 17.0 | 0.00 | 0.00 | 0.00 | 64 | 1016.6 |
| 20260510120057 | 57 | 52 | 8.0 | 17.0 | 0.00 | 0.00 | 0.00 | 64 | 1016.6 |
| 20260510115558 | 57 | 2 | 8.0 | 17.0 | 0.00 | 0.00 | 0.00 | 63 | 1016.6 |
| 20260510115058 | 58 | 52 | 6.0 | 20.0 | 0.00 | 0.00 | 0.00 | 64 | 1016.5 |
| 20260510114558 | 57 | 19 | 9.0 | 20.0 | 0.00 | 0.00 | 0.00 | 63 | 1016.6 |
| 20260510114059 | 57 | 66 | 9.0 | 18.0 | 0.00 | 0.00 | 0.00 | 64 | 1016.6 |
| 20260510113559 | 57 | 88 | 6.0 | 16.0 | 0.00 | 0.00 | 0.00 | 64 | 1016.8 |
| 20260510113104 | 56 | 43 | 7.0 | 17.0 | 0.00 | 0.00 | 0.00 | 64 | 1016.9 |
| 20260510112558 | 56 | 54 | 9.0 | 17.0 | 0.00 | 0.00 | 0.00 | 63 | 1016.9 |
| 20260510112058 | 56 | 21 | 7.0 | 16.0 | 0.00 | 0.00 | 0.00 | 63 | 1017.0 |
| 20260510111557 | 56 | 71 | 6.0 | 14.0 | 0.00 | 0.00 | 0.00 | 63 | 1017.0 |
| 20260510111059 | 57 | 55 | 7.0 | 15.0 | 0.00 | 0.00 | 0.00 | 63 | 1017.0 |
| 20260510110602 | 57 | 34 | 8.0 | 16.0 | 0.00 | 0.00 | 0.00 | 63 | 1017.0 |
| 20260510110058 | 57 | 57 | 7.0 | 16.0 | 0.00 | 0.00 | 0.00 | 62 | 1017.2 |
| 20260510105558 | 58 | 5 | 6.0 | 15.0 | 0.00 | 0.00 | 0.00 | 63 | 1017.2 |
| 20260510105059 | 58 | 57 | 4.0 | 15.0 | 0.00 | 0.00 | 0.00 | 64 | 1017.3 |
| 20260510104604 | 58 | 55 | 5.0 | 16.0 | 0.00 | 0.00 | 0.00 | 64 | 1017.2 |
| 20260510104100 | 58 | 24 | 7.0 | 16.0 | 0.00 | 0.00 | 0.00 | 63 | 1017.2 |
| 20260510103558 | 57 | 35 | 5.0 | 16.0 | 0.00 | 0.00 | 0.00 | 63 | 1017.3 |
| 20260510103056 | 57 | 64 | 7.0 | 16.0 | 0.00 | 0.00 | 0.00 | 64 | 1017.2 |
| 20260510102559 | 57 | 78 | 7.0 | 17.0 | 0.00 | 0.00 | 0.00 | 64 | 1017.2 |
| 20260510102059 | 56 | 87 | 7.0 | 17.0 | 0.00 | 0.00 | 0.00 | 63 | 1017.3 |
| 20260510101601 | 56 | 21 | 7.0 | 18.0 | 0.00 | 0.00 | 0.00 | 64 | 1017.4 |
| 20260510101058 | 56 | 36 | 8.0 | 18.0 | 0.00 | 0.00 | 0.00 | 63 | 1017.3 |
| 20260510100601 | 56 | 85 | 10.0 | 18.0 | 0.00 | 0.00 | 0.00 | 62 | 1017.4 |
| 20260510100057 | 57 | 67 | 10.0 | 17.0 | 0.00 | 0.00 | 0.00 | 64 | 1017.3 |
| 20260510095558 | 56 | 108 | 8.0 | 17.0 | 0.00 | 0.00 | 0.00 | 65 | 1017.4 |
| 20260510095058 | 55 | 49 | 8.0 | 17.0 | 0.00 | 0.00 | 0.00 | 66 | 1017.4 |
| 20260510094611 | 55 | 78 | 6.0 | 15.0 | 0.00 | 0.00 | 0.00 | 67 | 1017.4 |
| 20260510094058 | 55 | 99 | 8.0 | 16.0 | 0.00 | 0.00 | 0.00 | 67 | 1017.4 |
| 20260510093558 | 55 | 70 | 6.0 | 16.0 | 0.00 | 0.00 | 0.00 | 67 | 1017.5 |
| 20260510093119 | 55 | 45 | 9.0 | 15.0 | 0.00 | 0.00 | 0.00 | 67 | 1017.6 |
| 20260510092558 | 55 | 78 | 6.0 | 14.0 | 0.00 | 0.00 | 0.00 | 67 | 1017.6 |
| 20260510092100 | 55 | 82 | 7.0 | 17.0 | 0.00 | 0.00 | 0.00 | 68 | 1017.6 |
| 20260510091600 | 55 | 39 | 7.0 | 17.0 | 0.00 | 0.00 | 0.00 | 68 | 1017.5 |
| 20260510091058 | 55 | 43 | 9.0 | 19.0 | 0.00 | 0.00 | 0.00 | 69 | 1017.6 |
| 20260510090601 | 54 | 64 | 9.0 | 19.0 | 0.00 | 0.00 | 0.00 | 70 | 1017.6 |
| 20260510090110 | 54 | 22 | 6.0 | 19.0 | 0.00 | 0.00 | 0.00 | 72 | 1017.7 |
| 20260510085600 | 53 | 78 | 9.0 | 19.0 | 0.00 | 0.00 | 0.00 | 72 | 1017.7 |
| 20260510085058 | 53 | 54 | 4.0 | 17.0 | 0.00 | 0.00 | 0.00 | 74 | 1017.8 |
| 20260510084601 | 52 | 26 | 8.0 | 17.0 | 0.00 | 0.00 | 0.00 | 74 | 1017.8 |
| 20260510084058 | 52 | 47 | 8.0 | 16.0 | 0.00 | 0.00 | 0.00 | 75 | 1017.8 |
| 20260510083558 | 52 | 30 | 7.0 | 14.0 | 0.00 | 0.00 | 0.00 | 76 | 1017.9 |
| 20260510083058 | 51 | 68 | 7.0 | 20.0 | 0.00 | 0.00 | 0.00 | 76 | 1017.9 |
| 20260510082604 | 51 | 30 | 8.0 | 20.0 | 0.00 | 0.00 | 0.00 | 76 | 1017.9 |
| 20260510082058 | 51 | 32 | 7.0 | 15.0 | 0.00 | 0.00 | 0.00 | 77 | 1017.8 |
| 20260510081557 | 51 | 64 | 5.0 | 17.0 | 0.00 | 0.00 | 0.00 | 77 | 1017.9 |
| 20260510081101 | 51 | 26 | 7.0 | 17.0 | 0.00 | 0.00 | 0.00 | 78 | 1017.9 |
| 20260510080558 | 51 | 37 | 7.0 | 16.0 | 0.00 | 0.00 | 0.00 | 77 | 1017.9 |
| 20260510080056 | 51 | 88 | 8.0 | 15.0 | 0.00 | 0.00 | 0.00 | 78 | 1017.9 |
| 20260510075557 | 50 | 61 | 6.0 | 16.0 | 0.00 | 0.00 | 0.00 | 78 | 1017.9 |
| 20260510075057 | 50 | 45 | 6.0 | 19.0 | 0.00 | 0.00 | 0.00 | 79 | 1017.9 |
| 20260510074558 | 50 | 30 | 5.0 | 19.0 | 0.00 | 0.00 | 0.00 | 79 | 1018.0 |
| 20260510074059 | 50 | 68 | 6.0 | 15.0 | 0.00 | 0.00 | 0.00 | 80 | 1018.0 |
| 20260510073558 | 50 | 41 | 6.0 | 15.0 | 0.00 | 0.00 | 0.00 | 80 | 1018.1 |
| 20260510073058 | 50 | 109 | 8.0 | 15.0 | 0.00 | 0.00 | 0.00 | 80 | 1018.0 |
| 20260510072558 | 50 | 32 | 7.0 | 15.0 | 0.00 | 0.00 | 0.00 | 81 | 1018.0 |
| 20260510072058 | 50 | 33 | 5.0 | 13.0 | 0.00 | 0.00 | 0.00 | 82 | 1017.9 |
| 20260510071557 | 49 | 52 | 6.0 | 14.0 | 0.00 | 0.00 | 0.00 | 82 | 1017.8 |
| 20260510071058 | 49 | 73 | 6.0 | 14.0 | 0.00 | 0.00 | 0.00 | 82 | 1017.9 |
| 20260510070558 | 49 | 26 | 4.0 | 17.0 | 0.00 | 0.00 | 0.00 | 82 | 1017.9 |
| 20260510070058 | 49 | 66 | 7.0 | 17.0 | 0.00 | 0.00 | 0.00 | 83 | 1017.9 |
| 20260510065601 | 49 | 37 | 6.0 | 14.0 | 0.00 | 0.00 | 0.00 | 83 | 1017.9 |
| 20260510065101 | 49 | 53 | 4.0 | 11.0 | 0.00 | 0.00 | 0.00 | 84 | 1017.8 |
| 20260510064557 | 49 | 38 | 1.0 | 15.0 | 0.00 | 0.00 | 0.00 | 84 | 1017.9 |
| 20260510064057 | 49 | 27 | 6.0 | 15.0 | 0.00 | 0.00 | 0.00 | 84 | 1017.9 |
| 20260510063602 | 48 | 47 | 6.0 | 15.0 | 0.00 | 0.00 | 0.00 | 84 | 1017.9 |
| 20260510063057 | 48 | 95 | 6.0 | 13.0 | 0.00 | 0.00 | 0.00 | 84 | 1017.9 |
| 20260510062601 | 48 | 51 | 5.0 | 14.0 | 0.00 | 0.00 | 0.00 | 84 | 1017.8 |
| 20260510062058 | 48 | 33 | 7.0 | 14.0 | 0.00 | 0.00 | 0.00 | 85 | 1017.8 |
| 20260510061557 | 48 | 46 | 4.0 | 11.0 | 0.00 | 0.00 | 0.00 | 85 | 1017.7 |
| 20260510061058 | 48 | 60 | 4.0 | 11.0 | 0.00 | 0.00 | 0.00 | 85 | 1017.7 |
| 20260510060558 | 48 | 122 | 3.0 | 10.0 | 0.00 | 0.00 | 0.00 | 85 | 1017.7 |
| 20260510060058 | 48 | 32 | 3.0 | 10.0 | 0.00 | 0.00 | 0.00 | 86 | 1017.6 |
| 20260510055556 | 48 | 28 | 4.0 | 10.0 | 0.00 | 0.00 | 0.00 | 86 | 1017.6 |
| 20260510055055 | 48 | 62 | 4.0 | 9.0 | 0.00 | 0.00 | 0.00 | 86 | 1017.6 |
| 20260510054556 | 48 | 39 | 2.0 | 10.0 | 0.00 | 0.00 | 0.00 | 86 | 1017.6 |
| 20260510054054 | 48 | 0 | 2.0 | 12.0 | 0.00 | 0.00 | 0.00 | 86 | 1017.6 |
| 20260510053555 | 48 | 39 | 3.0 | 12.0 | 0.00 | 0.00 | 0.00 | 86 | 1017.6 |
| 20260510053104 | 48 | 49 | 3.0 | 14.0 | 0.00 | 0.00 | 0.00 | 86 | 1017.6 |
| 20260510052555 | 48 | 53 | 5.0 | 14.0 | 0.00 | 0.00 | 0.00 | 86 | 1017.7 |
| 20260510052055 | 47 | 30 | 5.0 | 12.0 | 0.00 | 0.00 | 0.00 | 86 | 1017.7 |
| 20260510051558 | 47 | 0 | 3.0 | 10.0 | 0.00 | 0.00 | 0.00 | 86 | 1017.7 |
| 20260510051055 | 47 | 61 | 3.0 | 10.0 | 0.00 | 0.00 | 0.00 | 86 | 1017.6 |
| 20260510050600 | 47 | 55 | 6.0 | 10.0 | 0.00 | 0.00 | 0.00 | 86 | 1017.6 |
| 20260510050056 | 47 | 83 | 3.0 | 17.0 | 0.00 | 0.00 | 0.00 | 86 | 1017.7 |
| 20260510045557 | 47 | 27 | 3.0 | 17.0 | 0.00 | 0.00 | 0.00 | 86 | 1017.6 |
| 20260510045056 | 47 | 17 | 6.0 | 17.0 | 0.00 | 0.00 | 0.00 | 86 | 1017.6 |
| 20260510044557 | 47 | 27 | 3.0 | 10.0 | 0.00 | 0.00 | 0.00 | 86 | 1017.6 |
| 20260510044055 | 47 | 19 | 3.0 | 10.0 | 0.00 | 0.00 | 0.00 | 86 | 1017.6 |
| 20260510043554 | 47 | 28 | 4.0 | 10.0 | 0.00 | 0.00 | 0.00 | 86 | 1017.6 |
| 20260510043103 | 47 | 50 | 3.0 | 9.0 | 0.00 | 0.00 | 0.00 | 86 | 1017.6 |
| 20260510042556 | 47 | 57 | 3.0 | 9.0 | 0.00 | 0.00 | 0.00 | 86 | 1017.6 |
| 20260510042059 | 47 | 43 | 4.0 | 9.0 | 0.00 | 0.00 | 0.00 | 86 | 1017.7 |
| 20260510041555 | 47 | 44 | 2.0 | 9.0 | 0.00 | 0.00 | 0.00 | 86 | 1017.6 |
| 20260510041055 | 47 | 61 | 1.0 | 9.0 | 0.00 | 0.00 | 0.00 | 86 | 1017.7 |
| 20260510040557 | 47 | 72 | 2.0 | 9.0 | 0.00 | 0.00 | 0.00 | 85 | 1017.7 |
| 20260510040058 | 48 | 27 | 1.0 | 8.0 | 0.00 | 0.00 | 0.00 | 85 | 1017.8 |
| 20260510035555 | 48 | 0 | 3.0 | 8.0 | 0.00 | 0.00 | 0.00 | 85 | 1018.0 |
| 20260510035057 | 48 | 51 | 4.0 | 11.0 | 0.00 | 0.00 | 0.00 | 85 | 1017.9 |
| 20260510034556 | 48 | 41 | 5.0 | 12.0 | 0.00 | 0.00 | 0.00 | 85 | 1017.8 |
| 20260510034055 | 48 | 55 | 5.0 | 12.0 | 0.00 | 0.00 | 0.00 | 85 | 1017.9 |
| 20260510033554 | 48 | 16 | 3.0 | 12.0 | 0.00 | 0.00 | 0.00 | 85 | 1017.9 |
| 20260510033107 | 48 | 41 | 5.0 | 12.0 | 0.00 | 0.00 | 0.00 | 85 | 1018.0 |
| 20260510032555 | 48 | 40 | 4.0 | 11.0 | 0.00 | 0.00 | 0.00 | 85 | 1018.0 |
| 20260510032055 | 48 | 58 | 4.0 | 10.0 | 0.00 | 0.00 | 0.00 | 85 | 1018.1 |
| 20260510031556 | 48 | 59 | 2.0 | 10.0 | 0.00 | 0.00 | 0.00 | 85 | 1018.0 |
| 20260510031054 | 48 | 36 | 4.0 | 10.0 | 0.00 | 0.00 | 0.00 | 84 | 1018.2 |
| 20260510030554 | 48 | 59 | 1.0 | 6.0 | 0.00 | 0.00 | 0.00 | 84 | 1018.1 |
| 20260510025556 | 48 | 70 | 1.0 | 11.0 | 0.00 | 0.00 | 0.00 | 84 | 1018.1 |
| 20260510025057 | 48 | 32 | 4.0 | 11.0 | 0.00 | 0.00 | 0.00 | 84 | 1018.0 |
| 20260510024658 | 48 | 53 | 3.0 | 12.0 | 0.00 | 0.00 | 0.00 | 84 | 1018.0 |
| 20260510024057 | 48 | 17 | 3.0 | 12.0 | 0.00 | 0.00 | 0.00 | 84 | 1018.0 |
| 20260510023557 | 49 | 43 | 3.0 | 11.0 | 0.00 | 0.00 | 0.00 | 83 | 1018.0 |
| 20260510023057 | 49 | 68 | 3.0 | 9.0 | 0.00 | 0.00 | 0.00 | 83 | 1018.0 |
| 20260510022600 | 49 | 35 | 3.0 | 10.0 | 0.00 | 0.00 | 0.00 | 83 | 1018.1 |
| 20260510022057 | 49 | 38 | 4.0 | 10.0 | 0.00 | 0.00 | 0.00 | 83 | 1018.0 |
| 20260510021558 | 49 | 53 | 4.0 | 12.0 | 0.00 | 0.00 | 0.00 | 82 | 1018.0 |
| 20260510021056 | 49 | 0 | 3.0 | 12.0 | 0.00 | 0.00 | 0.00 | 82 | 1018.1 |
| 20260510020556 | 49 | 43 | 5.0 | 12.0 | 0.00 | 0.00 | 0.00 | 82 | 1018.0 |
| 20260510020058 | 49 | 54 | 4.0 | 12.0 | 0.00 | 0.00 | 0.00 | 81 | 1017.9 |
| 20260510015557 | 49 | 24 | 3.0 | 12.0 | 0.00 | 0.00 | 0.00 | 80 | 1018.0 |
| 20260510015056 | 49 | 38 | 3.0 | 12.0 | 0.00 | 0.00 | 0.00 | 80 | 1018.0 |
| 20260510014556 | 49 | 36 | 4.0 | 12.0 | 0.00 | 0.00 | 0.00 | 79 | 1017.9 |
| 20260510014056 | 50 | 44 | 3.0 | 10.0 | 0.00 | 0.00 | 0.00 | 77 | 1018.0 |
| 20260510013556 | 50 | 32 | 2.0 | 11.0 | 0.00 | 0.00 | 0.00 | 76 | 1017.9 |
| 20260510013057 | 50 | 37 | 3.0 | 11.0 | 0.00 | 0.00 | 0.00 | 74 | 1017.9 |
| 20260510012556 | 50 | 34 | 3.0 | 11.0 | 0.00 | 0.00 | 0.00 | 72 | 1018.0 |
| 20260510012056 | 50 | 50 | 4.0 | 11.0 | 0.00 | 0.00 | 0.00 | 70 | 1018.0 |
| 20260510011557 | 50 | 45 | 1.0 | 7.0 | 0.00 | 0.00 | 0.00 | 69 | 1018.0 |
| 20260510011055 | 50 | 16 | 4.0 | 7.0 | 0.00 | 0.00 | 0.00 | 68 | 1018.0 |
| 20260510010555 | 51 | 42 | 3.0 | 7.0 | 0.00 | 0.00 | 0.00 | 67 | 1018.0 |
| 20260510010059 | 51 | 33 | 3.0 | 9.0 | 0.00 | 0.00 | 0.00 | 66 | 1018.0 |
| 20260510005558 | 51 | 36 | 4.0 | 9.0 | 0.00 | 0.00 | 0.00 | 66 | 1017.9 |
| 20260510005057 | 51 | 26 | 5.0 | 11.0 | 0.00 | 0.00 | 0.00 | 65 | 1017.9 |
| 20260510004602 | 51 | 39 | 5.0 | 13.0 | 0.00 | 0.00 | 0.00 | 65 | 1017.9 |
| 20260510004056 | 52 | 37 | 5.0 | 13.0 | 0.00 | 0.00 | 0.00 | 65 | 1018.0 |
| 20260510003556 | 52 | 32 | 3.0 | 11.0 | 0.00 | 0.00 | 0.00 | 65 | 1018.0 |
| 20260510003058 | 52 | 0 | 5.0 | 11.0 | 0.00 | 0.00 | 0.00 | 65 | 1018.0 |
| 20260510002556 | 52 | 34 | 4.0 | 15.0 | 0.00 | 0.00 | 0.00 | 65 | 1018.0 |
| 20260510002057 | 52 | 32 | 4.0 | 15.0 | 0.00 | 0.00 | 0.00 | 65 | 1017.9 |
| 20260510001557 | 52 | 24 | 4.0 | 15.0 | 0.00 | 0.00 | 0.00 | 65 | 1018.0 |
| 20260510001056 | 52 | 44 | 4.0 | 9.0 | 0.00 | 0.00 | 0.00 | 64 | 1018.0 |
| 20260510000556 | 52 | 43 | 3.0 | 10.0 | 0.00 | 0.00 | 0.00 | 64 | 1017.9 |
| 20260509235604 | 52 | 44 | 2.0 | 10.0 | 0.00 | 0.00 | 0.00 | 63 | 1018.0 |
| 20260509235059 | 52 | 52 | 3.0 | 10.0 | 0.00 | 0.00 | 0.00 | 62 | 1017.9 |
| 20260509234558 | 52 | 61 | 3.0 | 9.0 | 0.00 | 0.00 | 0.00 | 62 | 1018.0 |
| 20260509234059 | 52 | 51 | 2.0 | 5.0 | 0.00 | 0.00 | 0.00 | 61 | 1017.8 |
| 20260509233601 | 52 | 51 | 1.0 | 5.0 | 0.00 | 0.00 | 0.00 | 61 | 1017.8 |
| 20260509233058 | 53 | 58 | 1.0 | 5.0 | 0.00 | 0.00 | 0.00 | 61 | 1017.7 |
| 20260509232559 | 53 | 57 | 0.0 | 5.0 | 0.00 | 0.00 | 0.00 | 60 | 1017.8 |
| 20260509232059 | 53 | 57 | 1.0 | 5.0 | 0.00 | 0.00 | 0.00 | 60 | 1017.8 |
| 20260509231556 | 53 | 57 | 0.0 | 8.0 | 0.00 | 0.00 | 0.00 | 59 | 1017.9 |
| 20260509231058 | 53 | 57 | 2.0 | 8.0 | 0.00 | 0.00 | 0.00 | 59 | 1017.9 |
| 20260509230601 | 53 | 0 | 3.0 | 8.0 | 0.00 | 0.00 | 0.00 | 58 | 1017.8 |
| 20260509230058 | 53 | 62 | 1.0 | 6.0 | 0.00 | 0.00 | 0.00 | 57 | 1017.7 |
| 20260509225558 | 53 | 66 | 0.0 | 4.0 | 0.00 | 0.00 | 0.00 | 57 | 1017.8 |
| 20260509225058 | 54 | 66 | 0.0 | 4.0 | 0.00 | 0.00 | 0.00 | 56 | 1017.7 |
| 20260509224557 | 54 | 66 | 1.0 | 5.0 | 0.00 | 0.00 | 0.00 | 56 | 1017.7 |
| 20260509224058 | 54 | 0 | 2.0 | 5.0 | 0.00 | 0.00 | 0.00 | 55 | 1017.8 |
| 20260509223600 | 54 | 69 | 2.0 | 5.0 | 0.00 | 0.00 | 0.00 | 55 | 1017.7 |
| 20260509223101 | 54 | 0 | 2.0 | 7.0 | 0.00 | 0.00 | 0.00 | 54 | 1017.6 |
| 20260509222602 | 54 | 69 | 1.0 | 7.0 | 0.00 | 0.00 | 0.00 | 54 | 1017.7 |
| 20260509222058 | 55 | 78 | 1.0 | 6.0 | 0.00 | 0.00 | 0.00 | 54 | 1017.7 |
| 20260509221559 | 55 | 82 | 2.0 | 8.0 | 0.00 | 0.00 | 0.00 | 53 | 1017.7 |
| 20260509221058 | 55 | 82 | 1.0 | 8.0 | 0.00 | 0.00 | 0.00 | 53 | 1017.6 |
| 20260509220557 | 55 | 82 | 2.0 | 7.0 | 0.00 | 0.00 | 0.00 | 53 | 1017.6 |
| 20260509220103 | 55 | 67 | 1.0 | 7.0 | 0.00 | 0.00 | 0.00 | 53 | 1017.6 |
| 20260509215558 | 55 | 66 | 3.0 | 7.0 | 0.00 | 0.00 | 0.00 | 53 | 1017.6 |
| 20260509215058 | 55 | 73 | 2.0 | 7.0 | 0.00 | 0.00 | 0.00 | 52 | 1017.5 |
| 20260509214628 | 55 | 71 | 2.0 | 8.0 | 0.00 | 0.00 | 0.00 | 52 | 1017.6 |
| 20260509214058 | 56 | 72 | 2.0 | 8.0 | 0.00 | 0.00 | 0.00 | 51 | 1017.7 |
| 20260509213558 | 56 | 72 | 2.0 | 9.0 | 0.00 | 0.00 | 0.00 | 51 | 1017.8 |
| 20260509213057 | 56 | 0 | 2.0 | 9.0 | 0.00 | 0.00 | 0.00 | 50 | 1017.7 |
| 20260509212558 | 56 | 77 | 3.0 | 11.0 | 0.00 | 0.00 | 0.00 | 50 | 1017.7 |
| 20260509212059 | 56 | 55 | 5.0 | 11.0 | 0.00 | 0.00 | 0.00 | 50 | 1017.7 |
| 20260509211556 | 56 | 0 | 3.0 | 10.0 | 0.00 | 0.00 | 0.00 | 50 | 1017.6 |
| 20260509211058 | 57 | 89 | 4.0 | 10.0 | 0.00 | 0.00 | 0.00 | 49 | 1017.5 |
| 20260509210559 | 57 | 67 | 4.0 | 10.0 | 0.00 | 0.00 | 0.00 | 49 | 1017.4 |
| 20260509210106 | 57 | 86 | 5.0 | 10.0 | 0.00 | 0.00 | 0.00 | 49 | 1017.4 |
| 20260509205557 | 57 | 68 | 2.0 | 9.0 | 0.00 | 0.00 | 0.00 | 49 | 1017.3 |
| 20260509205057 | 57 | 64 | 2.0 | 9.0 | 0.00 | 0.00 | 0.00 | 49 | 1017.3 |
| 20260509204557 | 58 | 80 | 3.0 | 9.0 | 0.00 | 0.00 | 0.00 | 48 | 1017.3 |
| 20260509204057 | 58 | 82 | 4.0 | 9.0 | 0.00 | 0.00 | 0.00 | 48 | 1017.3 |
| 20260509203558 | 58 | 73 | 3.0 | 11.0 | 0.00 | 0.00 | 0.00 | 47 | 1017.2 |
| 20260509203115 | 58 | 86 | 2.0 | 11.0 | 0.00 | 0.00 | 0.00 | 47 | 1017.3 |
| 20260509202556 | 58 | 91 | 4.0 | 12.0 | 0.00 | 0.00 | 0.00 | 47 | 1017.1 |
| 20260509202056 | 59 | 61 | 5.0 | 12.0 | 0.00 | 0.00 | 0.00 | 47 | 1017.2 |
| 20260509201559 | 59 | 59 | 5.0 | 11.0 | 0.00 | 0.00 | 0.00 | 47 | 1017.2 |
| 20260509201055 | 59 | 81 | 4.0 | 11.0 | 0.00 | 0.00 | 0.00 | 47 | 1017.1 |
| 20260509200558 | 59 | 90 | 4.0 | 11.0 | 0.00 | 0.00 | 0.00 | 47 | 1017.1 |
| 20260509200057 | 60 | 76 | 3.0 | 10.0 | 0.00 | 0.00 | 0.00 | 47 | 1017.1 |
| 20260509195557 | 60 | 83 | 2.0 | 9.0 | 0.00 | 0.00 | 0.00 | 46 | 1016.9 |
| 20260509195057 | 60 | 90 | 5.0 | 9.0 | 0.00 | 0.00 | 0.00 | 46 | 1016.9 |
| 20260509194555 | 60 | 89 | 3.0 | 8.0 | 0.00 | 0.00 | 0.00 | 46 | 1016.9 |
| 20260509194056 | 60 | 86 | 3.0 | 8.0 | 0.00 | 0.00 | 0.00 | 45 | 1016.9 |
| 20260509193557 | 61 | 0 | 3.0 | 9.0 | 0.00 | 0.00 | 0.00 | 45 | 1016.8 |
| 20260509193102 | 61 | 72 | 3.0 | 9.0 | 0.00 | 0.00 | 0.00 | 45 | 1016.7 |
| 20260509192601 | 61 | 66 | 4.0 | 9.0 | 0.00 | 0.00 | 0.00 | 44 | 1016.7 |
| 20260509192056 | 61 | 93 | 4.0 | 10.0 | 0.00 | 0.00 | 0.00 | 44 | 1016.7 |
| 20260509191606 | 62 | 91 | 5.0 | 10.0 | 0.00 | 0.00 | 0.00 | 44 | 1016.7 |
| 20260509191057 | 62 | 81 | 5.0 | 12.0 | 0.00 | 0.00 | 0.00 | 44 | 1016.7 |
| 20260509190558 | 62 | 80 | 5.0 | 12.0 | 0.00 | 0.00 | 0.00 | 44 | 1016.6 |
| 20260509190057 | 63 | 73 | 6.0 | 12.0 | 0.00 | 0.00 | 0.00 | 44 | 1016.5 |
| 20260509185556 | 63 | 66 | 5.0 | 12.0 | 0.00 | 0.00 | 0.00 | 43 | 1016.4 |
| 20260509185056 | 63 | 68 | 3.0 | 10.0 | 0.00 | 0.00 | 0.00 | 43 | 1016.5 |
| 20260509184602 | 64 | 114 | 4.0 | 11.0 | 0.00 | 0.00 | 0.00 | 42 | 1016.6 |
| 20260509184057 | 64 | 95 | 2.0 | 14.0 | 0.00 | 0.00 | 0.00 | 42 | 1016.5 |
| 20260509183556 | 64 | 134 | 3.0 | 14.0 | 0.00 | 0.00 | 0.00 | 42 | 1016.4 |
| 20260509183100 | 64 | 125 | 2.0 | 9.0 | 0.00 | 0.00 | 0.00 | 42 | 1016.4 |
| 20260509182600 | 65 | 85 | 3.0 | 11.0 | 0.00 | 0.00 | 0.00 | 41 | 1016.2 |
| 20260509182056 | 65 | 118 | 4.0 | 11.0 | 0.00 | 0.00 | 0.00 | 41 | 1016.1 |
| 20260509181558 | 65 | 122 | 2.0 | 10.0 | 0.00 | 0.00 | 0.00 | 42 | 1016.0 |
| 20260509181057 | 66 | 98 | 2.0 | 11.0 | 0.00 | 0.00 | 0.00 | 42 | 1016.0 |
| 20260509180557 | 66 | 101 | 4.0 | 12.0 | 0.00 | 0.00 | 0.00 | 41 | 1016.1 |
| 20260509180109 | 66 | 94 | 3.0 | 12.0 | 0.00 | 0.00 | 0.00 | 41 | 1016.0 |
| 20260509175557 | 66 | 80 | 4.0 | 13.0 | 0.00 | 0.00 | 0.00 | 41 | 1015.9 |
| 20260509175057 | 66 | 71 | 3.0 | 13.0 | 0.00 | 0.00 | 0.00 | 41 | 1015.9 |
| 20260509174620 | 66 | 101 | 7.0 | 13.0 | 0.00 | 0.00 | 0.00 | 40 | 1015.7 |
| 20260509174056 | 67 | 103 | 4.0 | 11.0 | 0.00 | 0.00 | 0.00 | 40 | 1015.7 |
| 20260509173555 | 67 | 85 | 5.0 | 11.0 | 0.00 | 0.00 | 0.00 | 39 | 1015.7 |
| 20260509173100 | 67 | 108 | 3.0 | 11.0 | 0.00 | 0.00 | 0.00 | 39 | 1015.6 |
| 20260509172557 | 67 | 56 | 6.0 | 11.0 | 0.00 | 0.00 | 0.00 | 38 | 1015.6 |
| 20260509172055 | 67 | 85 | 4.0 | 11.0 | 0.00 | 0.00 | 0.00 | 38 | 1015.6 |
| 20260509171557 | 68 | 80 | 5.0 | 11.0 | 0.00 | 0.00 | 0.00 | 38 | 1015.7 |
| 20260509171057 | 68 | 76 | 5.0 | 11.0 | 0.00 | 0.00 | 0.00 | 37 | 1015.8 |
| 20260509170554 | 68 | 82 | 5.0 | 11.0 | 0.00 | 0.00 | 0.00 | 37 | 1015.9 |
| 20260509165557 | 69 | 58 | 6.0 | 11.0 | 0.00 | 0.00 | 0.00 | 38 | 1015.8 |
| 20260509165058 | 69 | 79 | 5.0 | 11.0 | 0.00 | 0.00 | 0.00 | 38 | 1015.8 |
| 20260509164556 | 69 | 81 | 4.0 | 12.0 | 0.00 | 0.00 | 0.00 | 38 | 1015.8 |
| 20260509164053 | 69 | 41 | 5.0 | 12.0 | 0.00 | 0.00 | 0.00 | 37 | 1015.7 |
| 20260509163553 | 69 | 81 | 3.0 | 11.0 | 0.00 | 0.00 | 0.00 | 37 | 1015.7 |
| 20260509163100 | 69 | 99 | 4.0 | 11.0 | 0.00 | 0.00 | 0.00 | 37 | 1015.7 |
| 20260509162554 | 69 | 97 | 5.0 | 14.0 | 0.00 | 0.00 | 0.00 | 37 | 1015.6 |
| 20260509162055 | 69 | 124 | 3.0 | 14.0 | 0.00 | 0.00 | 0.00 | 38 | 1015.5 |
| 20260509161556 | 69 | 82 | 4.0 | 13.0 | 0.00 | 0.00 | 0.00 | 37 | 1015.6 |
| 20260509161057 | 69 | 55 | 6.0 | 13.0 | 0.00 | 0.00 | 0.00 | 36 | 1015.7 |
| 20260509160555 | 70 | 94 | 4.0 | 11.0 | 0.00 | 0.00 | 0.00 | 36 | 1015.6 |
| 20260509160055 | 70 | 84 | 4.0 | 11.0 | 0.00 | 0.00 | 0.00 | 36 | 1015.6 |
| 20260509155556 | 70 | 86 | 4.0 | 11.0 | 0.00 | 0.00 | 0.00 | 37 | 1015.7 |
| 20260509155058 | 70 | 62 | 3.0 | 14.0 | 0.00 | 0.00 | 0.00 | 36 | 1015.9 |
| 20260509154554 | 70 | 37 | 5.0 | 14.0 | 0.00 | 0.00 | 0.00 | 37 | 1016.0 |
| 20260509154054 | 70 | 90 | 3.0 | 11.0 | 0.00 | 0.00 | 0.00 | 36 | 1016.0 |
| 20260509153554 | 70 | 0 | 2.0 | 9.0 | 0.00 | 0.00 | 0.00 | 35 | 1015.9 |
| 20260509153110 | 70 | 86 | 4.0 | 9.0 | 0.00 | 0.00 | 0.00 | 35 | 1016.0 |
| 20260509152554 | 70 | 93 | 4.0 | 12.0 | 0.00 | 0.00 | 0.00 | 35 | 1016.2 |
| 20260509152054 | 70 | 46 | 4.0 | 12.0 | 0.00 | 0.00 | 0.00 | 35 | 1016.2 |